Wind_Speed
11 12 13 14 18 14 13 14 13 10 11 11 12 13 14 12 11 8 4 5 9 9 6 3 3 3 4 6 3 3 3 4 7 4 3 7 7 8 9 11 10 12 14
4 5 5 14 15 13 15 14 12 12 11 12 11 12 15 13 12 10 8 5 7 8 6 5 4 5 5 7 5 6 6 4 5 5 3 5 8 5 6 7 7 7 9
5 6 11 12 14 15 15 15 12 13 14 14 14 14 15 15 13 12 11 10 8 8 7 5 6 5 5 6 8 7 5 7 7 3 2 4 3 5 5 6 6 7 9
8 10 14 17 17 15 13 13 13 13 15 17 16 16 16 15 14 13 11 9 7 7 8 7 5 5 5 7 5 1 6 5 7 6 3 2 3 3 3 3 4 6 7
11 15 18 16 14 13 13 13 10 10 9 9 10 12 17 17 14 13 13 10 9 8 5 4 4 4 5 3 7 8 7 6 5 4 2 2 1 1 2 4 4 5 5
16 17 17 16 14 13 14 10 7 7 7 8 9 9 10 15 15 13 13 12 7 4 2 2 5 11 13 13 13 11 7 2 4 2 3 2 1 1 3 4 5 6 6
19 18 17 16 13 12 12 11 10 10 9 11 12 12 12 9 15 13 16 11 10 14 14 15 16 16 11 10 8 7 7 6 5 5 3 4 4 4 5 6 6 6 5
21 18 16 14 13 15 14 13 13 13 13 13 15 13 13 15 14 17 17 21 22 22 20 15 15 15 13 9 7 7 9 10 10 9 8 9 9 8 8 8 7 7 7
21 18 16 17 19 18 16 15 14 16 15 18 18 18 20 19 17 20 20 22 23 20 17 15 11 11 13 11 8 9 12 14 13 12 11 11 11 11 11 10 8 8 7
25 20 19 22 19 19 18 17 17 18 20 23 21 21 25 25 19 19 18 18 17 18 17 16 13 11 13 12 9 11 11 13 11 11 11 11 13 13 13 12 12 11 10
25 22 23 23 20 19 21 19 20 24 27 29 30 27 25 23 22 16 14 16 15 17 16 14 14 12 12 11 10 10 12 12 11 11 12 13 13 15 16 16 15 13 11
26 26 26 23 22 22 23 24 29 29 29 30 30 29 26 22 17 18 16 15 15 12 14 14 14 12 12 10 9 11 13 12 12 12 13 15 16 18 18 17 17 16 15
29 29 27 24 23 24 27 29 31 30 30 30 31 30 27 22 21 19 18 16 13 12 13 11 12 11 10 11 13 14 13 13 13 14 16 17 18 18 16 14 14 14 13
32 29 28 26 27 28 31 31 30 30 29 27 28 25 23 22 21 20 17 14 11 10 11 13 12 12 13 14 14 13 13 14 14 16 16 17 16 15 16 17 18 19 19
31 30 28 27 27 29 30 30 28 25 18 24 19 19 24 24 21 16 13 12 12 11 12 13 13 13 13 13 13 13 15 15 15 17 16 16 15 16 18 19 21 22 22
32 31 29 27 29 29 29 30 28 21 21 17 13 18 22 22 22 17 14 13 12 12 12 12 14 14 13 14 13 14 15 15 15 15 15 15 16 17 19 21 22 22 22
31 33 30 28 30 31 31 32 31 27 21 17 18 19 20 22 19 16 14 14 13 14 11 14 14 14 14 14 14 14 14 14 14 14 15 16 17 18 20 21 22 23 23
31 31 30 29 30 34 36 31 30 30 30 27 20 21 21 19 17 15 13 12 15 15 12 13 13 14 13 13 13 13 12 13 13 14 15 16 16 18 20 21 22 22 22
29 31 29 30 30 32 33 28 28 29 29 29 28 24 21 19 17 15 14 11 12 14 13 14 13 13 12 12 12 12 11 12 12 13 15 15 16 17 19 20 21 20 21
28 29 29 31 31 32 31 27 28 28 29 29 30 29 27 22 19 17 15 14 13 13 13 12 12 12 11 11 11 10 10 10 11 12 14 15 15 17 18 19 20 21 21
27 27 28 30 30 30 29 27 26 27 27 27 27 26 23 19 19 16 15 14 13 12 12 12 11 12 11 10 10 10 9 9 10 11 13 14 15 16 18 18 19 19 19
23 26 28 28 29 29 28 25 24 25 25 26 26 26 23 20 18 17 15 14 13 12 12 11 11 11 10 9 9 9 8 8 9 10 12 13 14 15 17 18 18 19 19
18 25 28 27 26 28 27 25 25 24 25 26 26 27 26 23 19 17 14 13 12 11 10 10 10 9 9 8 8 8 8 8 9 10 11 12 13 14 16 17 18 18 19
14 21 26 28 24 24 24 26 25 24 25 25 25 25 26 24 21 18 15 13 11 10 9 9 9 9 8 8 7 7 7 7 8 9 11 12 13 13 14 16 17 17 17
9 17 23 26 25 22 23 24 25 24 25 24 24 24 25 24 23 20 17 14 11 9 8 7 8 8 8 7 6 7 7 7 8 8 10 11 12 12 13 15 16 17 17
2 9 18 23 25 24 22 22 24 24 24 24 24 23 24 25 24 22 19 16 13 10 8 6 7 8 8 7 6 5 6 6 7 8 9 10 11 12 13 14 15 16 16
Wind_Direction
176 186 194 217 213 211 200 189 193 201 204 205 217 223 195 209 198 200 154 161 170 180 189 186 191 226 253 233 277 289 302 269 227 188 195 220 197 223 249 253 246 240 260
194 233 197 184 190 191 187 182 192 190 187 202 197 191 197 202 199 192 190 198 207 214 208 213 212 265 267 251 281 291 290 260 176 155 209 212 219 222 237 230 242 248 256
253 250 238 205 189 184 184 186 193 195 195 201 198 196 204 208 204 199 204 215 235 221 208 213 229 253 278 264 287 292 270 190 187 169 108 198 231 256 259 255 246 239 243
220 216 205 186 169 169 178 189 198 210 220 220 221 217 206 207 208 209 210 211 220 188 196 217 238 277 292 293 278 217 204 162 134 124 90 154 253 266 276 291 297 297 286
201 177 167 167 175 183 194 208 210 210 216 220 224 218 207 202 198 194 195 199 194 183 209 240 259 294 278 143 112 123 138 134 150 148 182 137 144 225 294 301 297 295 296
182 180 176 179 184 198 216 199 178 181 183 165 156 168 175 190 193 197 192 182 168 190 207 145 131 111 107 111 126 137 146 171 156 109 116 95 84 15 336 320 307 300 299
182 185 189 191 199 204 172 158 164 159 140 148 152 158 149 152 173 179 161 154 141 115 111 109 107 104 92 103 120 131 130 117 104 80 63 69 42 27 3 350 342 334 326
183 184 186 190 203 169 161 157 158 152 145 140 149 151 140 156 158 148 140 132 121 115 110 111 111 104 89 80 91 111 106 98 85 75 65 59 41 26 11 5 357 348 338
184 180 185 185 171 163 161 158 157 159 156 149 147 144 125 129 130 132 134 129 124 118 114 110 104 106 99 81 81 89 90 82 72 59 51 44 34 23 20 18 9 5 358
182 177 182 176 168 164 158 155 162 165 157 149 140 132 128 122 126 129 130 130 122 119 122 117 108 98 100 94 80 74 80 79 61 53 48 43 39 36 33 31 28 22 19
182 179 178 176 170 161 157 158 157 146 136 132 127 125 124 122 118 116 123 126 121 124 119 115 108 98 94 91 81 78 75 71 63 52 48 46 45 39 36 30 23 17 11
182 178 179 172 166 163 162 162 153 145 141 134 133 131 124 123 126 125 124 121 118 115 115 113 105 99 94 91 91 85 80 72 64 60 57 53 43 35 28 19 12 4 356
180 176 175 170 168 164 164 160 153 151 146 143 138 136 133 136 134 130 130 123 119 119 114 109 108 108 111 103 94 86 76 70 66 61 55 47 39 33 25 21 16 10 354
174 173 170 169 167 166 165 161 158 153 152 151 147 147 146 145 139 137 133 132 131 122 113 111 110 108 97 92 88 85 81 75 67 58 52 47 42 34 28 23 15 10 10
170 168 165 167 166 167 168 165 159 157 159 155 152 151 147 141 134 127 125 123 120 114 116 113 109 102 101 99 98 92 81 72 63 58 53 47 40 34 27 20 18 18 20
166 165 163 164 165 170 168 162 148 146 151 146 147 147 140 139 137 136 131 127 123 117 120 117 114 110 108 105 98 88 81 71 63 57 49 43 37 29 25 23 23 23 22
167 165 165 168 167 166 159 150 150 145 142 144 149 148 147 143 137 135 136 132 127 122 127 120 114 113 111 106 96 87 76 69 62 54 45 39 33 28 27 25 23 22 22
168 169 167 168 166 162 157 157 153 153 148 146 148 149 150 143 137 138 134 134 132 129 125 117 117 117 114 107 99 86 75 67 60 49 42 35 30 29 27 25 22 21 19
172 171 170 167 166 161 159 160 160 163 158 151 150 153 153 146 141 137 127 124 126 129 127 123 123 122 120 112 100 86 74 65 55 46 38 33 30 29 28 26 24 22 20
177 175 172 168 164 164 165 167 169 172 170 164 160 159 159 159 151 140 132 130 127 128 125 126 129 129 125 116 100 86 72 63 54 43 36 33 31 29 29 27 24 24 27
180 175 171 168 168 169 169 172 179 178 178 173 167 166 159 153 147 137 131 126 121 121 128 131 133 132 131 118 103 88 75 63 53 42 35 31 31 31 32 29 26 26 28
181 174 172 172 171 171 172 178 182 182 182 178 172 168 163 159 154 143 137 127 119 122 130 132 136 137 134 122 105 89 76 63 51 41 34 31 30 32 33 32 29 28 28
181 176 173 173 173 175 180 183 183 181 181 181 179 174 167 167 164 154 147 134 122 117 126 134 138 141 137 127 110 94 79 62 50 40 33 30 31 32 32 31 31 31 30
181 181 178 178 175 175 179 180 181 181 182 185 185 180 176 175 172 166 160 151 139 127 120 135 143 148 143 131 113 96 82 65 50 39 32 30 31 32 32 32 32 32 32
173 185 185 180 180 176 177 181 182 182 184 187 188 185 184 182 181 178 175 169 159 147 128 127 147 154 149 138 121 102 85 67 51 39 33 32 31 31 31 32 32 31 31
286 173 184 188 186 185 181 182 186 186 187 189 190 189 188 189 190 189 187 184 178 171 159 139 153 161 156 148 134 113 93 73 53 40 34 34 31 31 31 32 30 30 29
Height
1440 1443 1445 1450 1461 1461 1464 1468 1472 1474 1476 1480 1482 1485 1488 1490 1492 1495 1496 1498 1500 1502 1504 1505 1507 1508 1509 1510 1511 1511 1511 1511 1512 1514 1516 1517 1518 1520 1521 1522 1522 1523 1524
1443 1445 1449 1453 1457 1459 1464 1467 1471 1473 1475 1478 1480 1483 1486 1489 1492 1494 1496 1499 1501 1502 1503 1505 1506 1507 1508 1509 1510 1510 1510 1510 1513 1514 1516 1517 1517 1518 1519 1520 1520 1520 1520
1443 1444 1450 1454 1455 1459 1463 1466 1470 1472 1474 1477 1479 1481 1484 1487 1490 1493 1495 1498 1500 1501 1502 1504 1505 1506 1506 1507 1508 1508 1508 1510 1512 1513 1514 1516 1517 1517 1518 1518 1519 1519 1519
1442 1444 1448 1450 1453 1458 1462 1465 1468 1470 1473 1475 1477 1479 1482 1485 1489 1492 1495 1497 1499 1500 1502 1503 1504 1505 1505 1506 1506 1506 1507 1509 1512 1513 1515 1516 1516 1517 1517 1518 1518 1518 1518
1442 1445 1447 1451 1454 1457 1461 1464 1465 1468 1471 1472 1474 1476 1479 1483 1487 1490 1493 1496 1497 1499 1501 1502 1503 1504 1504 1504 1505 1507 1509 1511 1513 1513 1515 1516 1517 1517 1517 1517 1516 1516 1516
1441 1445 1447 1450 1453 1457 1460 1461 1464 1468 1469 1471 1473 1476 1478 1481 1485 1488 1492 1495 1497 1499 1501 1502 1503 1503 1504 1505 1507 1510 1511 1513 1513 1514 1515 1516 1516 1516 1516 1516 1515 1515 1515
1439 1445 1447 1450 1452 1455 1458 1460 1465 1467 1470 1472 1474 1476 1479 1480 1485 1487 1491 1495 1497 1500 1502 1504 1506 1507 1509 1509 1511 1512 1513 1514 1515 1516 1516 1516 1516 1516 1516 1515 1514 1514 1513
1438 1443 1446 1448 1451 1455 1458 1461 1465 1468 1471 1474 1476 1478 1479 1483 1487 1490 1493 1496 1498 1502 1505 1508 1509 1510 1511 1512 1513 1513 1514 1515 1516 1517 1517 1517 1517 1516 1515 1514 1513 1513 1513
1436 1441 1445 1449 1451 1455 1458 1462 1465 1469 1472 1475 1478 1480 1482 1486 1490 1493 1496 1498 1501 1504 1508 1511 1512 1513 1514 1515 1516 1515 1516 1516 1518 1518 1518 1518 1518 1517 1516 1515 1514 1513 1512
1436 1441 1445 1448 1451 1455 1458 1462 1466 1470 1473 1475 1479 1482 1485 1489 1495 1498 1501 1502 1504 1507 1510 1513 1515 1515 1516 1518 1518 1518 1518 1519 1521 1521 1520 1520 1519 1518 1517 1516 1515 1514 1513
1435 1440 1444 1448 1452 1455 1459 1463 1468 1471 1475 1479 1481 1486 1491 1495 1499 1503 1506 1507 1508 1510 1513 1515 1516 1518 1519 1520 1521 1521 1521 1522 1523 1522 1522 1521 1521 1520 1518 1517 1515 1514 1513
1434 1439 1444 1448 1452 1455 1460 1465 1469 1475 1479 1483 1486 1490 1495 1499 1503 1506 1509 1511 1512 1514 1515 1516 1518 1520 1521 1522 1523 1524 1525 1525 1525 1524 1524 1523 1521 1520 1519 1517 1516 1514 1512
1433 1438 1443 1448 1452 1456 1462 1467 1471 1477 1481 1486 1489 1491 1496 1502 1505 1509 1511 1513 1515 1516 1517 1519 1520 1522 1523 1524 1526 1526 1527 1527 1526 1526 1525 1524 1523 1522 1521 1520 1518 1516 1513
1432 1438 1443 1447 1451 1457 1464 1470 1475 1479 1484 1488 1491 1494 1499 1504 1507 1510 1512 1515 1517 1518 1519 1521 1523 1524 1525 1526 1527 1528 1529 1529 1528 1528 1527 1526 1526 1525 1523 1521 1518 1516 1512
1432 1437 1441 1447 1453 1459 1465 1470 1477 1483 1487 1491 1495 1498 1501 1505 1509 1513 1516 1517 1519 1520 1521 1523 1524 1526 1527 1529 1530 1530 1531 1531 1530 1530 1529 1529 1528 1527 1524 1522 1518 1515 1511
1431 1436 1442 1448 1454 1460 1466 1472 1479 1486 1491 1496 1499 1503 1505 1509 1511 1515 1517 1519 1521 1522 1524 1525 1526 1528 1530 1531 1532 1532 1533 1533 1533 1533 1532 1531 1530 1528 1525 1522 1519 1516 1512
1431 1437 1444 1450 1456 1462 1468 1475 1479 1487 1493 1498 1502 1505 1509 1511 1514 1517 1519 1521 1523 1524 1527 1527 1529 1531 1532 1533 1534 1534 1535 1535 1535 1535 1535 1533 1532 1530 1527 1523 1521 1517 1514
1434 1440 1446 1451 1456 1463 1470 1477 1482 1486 1491 1496 1504 1507 1511 1514 1516 1519 1521 1523 1524 1526 1529 1530 1531 1533 1534 1535 1536 1537 1537 1537 1537 1537 1536 1535 1533 1531 1528 1525 1522 1519 1516
1436 1442 1447 1453 1459 1465 1472 1478 1484 1489 1494 1497 1502 1508 1513 1516 1518 1521 1522 1525 1526 1528 1530 1532 1533 1535 1536 1537 1538 1538 1538 1539 1539 1539 1538 1536 1534 1532 1530 1527 1524 1521 1518
1439 1444 1449 1455 1460 1467 1473 1479 1485 1489 1494 1498 1502 1506 1510 1515 1518 1521 1524 1526 1528 1530 1532 1533 1535 1537 1538 1539 1539 1540 1541 1541 1541 1540 1539 1538 1536 1534 1531 1528 1526 1523 1519
1441 1446 1452 1457 1462 1468 1473 1480 1486 1490 1495 1500 1504 1508 1513 1517 1520 1523 1526 1527 1529 1531 1533 1535 1537 1538 1539 1540 1541 1542 1542 1542 1542 1542 1540 1539 1537 1535 1533 1530 1528 1525 1522
1442 1447 1453 1459 1464 1469 1475 1481 1486 1491 1496 1501 1505 1510 1514 1518 1522 1524 1527 1529 1531 1532 1534 1536 1538 1540 1541 1542 1543 1543 1544 1544 1544 1543 1542 1540 1538 1536 1534 1532 1530 1527 1524
1444 1448 1454 1461 1466 1471 1475 1481 1486 1491 1496 1501 1505 1509 1513 1518 1522 1525 1528 1530 1532 1534 1535 1537 1539 1541 1542 1543 1544 1544 1545 1545 1545 1544 1543 1542 1540 1538 1536 1534 1531 1529 1526
1445 1449 1454 1461 1466 1471 1475 1480 1485 1490 1495 1500 1504 1509 1513 1518 1522 1526 1529 1531 1533 1535 1537 1538 1540 1541 1543 1544 1545 1546 1546 1546 1546 1546 1545 1543 1542 1540 1538 1536 1533 1531 1528
1446 1450 1454 1460 1466 1470 1475 1480 1484 1489 1494 1499 1503 1508 1513 1518 1522 1525 1528 1532 1534 1536 1538 1539 1541 1542 1544 1545 1546 1547 1547 1547 1548 1547 1546 1545 1543 1541 1540 1537 1535 1533 1531
1447 1450 1454 1459 1465 1470 1474 1479 1483 1488 1492 1497 1502 1507 1512 1516 1520 1524 1527 1531 1533 1536 1538 1540 1541 1543 1545 1546 1547 1548 1548 1549 1549 1548 1547 1546 1544 1543 1541 1539 1537 1535 1533